Find Starlink 1741

NORAD ID: 46567 Int'l Des: 2020-070 Owner: SPXS Country: US Constellation: starlink decayed
LEOCIRCULAR

Re-entered — 3. Juli 2026

3D-Globus wird geladen...

About Starlink 1741

Starlink 1741 (NORAD 46567) is a starlink constellation satellite (v1.0) launched Oct 6, 2020 by SPXS of US. It re-entered the atmosphere on Jul 3, 2026. with a mass of 260.00 kg.

Höhenverlauf

Loading altitude history...

Zweizeiliger Elementsatz

1 46567U 20070AM 26184.45793223 .07987208 12403-4 72477-3 0 9998
2 46567 53.0152 256.3391 0007819 319.9532 40.0936 16.38061958318643
Epoch: 3. Juli 2026 • Age: 549 hours

Aktueller Status

Position data unavailable
Startdatum 6. Okt. 2020
Alter 5.7 years
Verglühungsdatum 3. Juli 2026
Typ internet

Technische Details

Klassifizierung Payload
Masse 260.00 kg
Trockenmasse 248.00 kg
Gesamtmasse 260.00 kg
Länge 0.20 m
Durchmesser 2.80 m
Spannweite 9.00 m
Form Box + pan
Hersteller SPXS
Bus-Typ Starlink
Phasenstatus Unknown Transfer Status
Besitzer/Staat SPXS/US

Most Searched